Regional Weather Roundup
Issued by NWS

Home | Current Version | Previous Version | Text Only | Print | Product List | Glossary Off
Versions: 1 2 3 4 5 6 7 8 9 10 11 12 13 14 15 16 17 18 19 20 21 22 23 24 25 26 27 28 29 30 31 32 33 34 35 36 37 38 39 40 41 42 43 44 45 46 47 48 49 50

000
ASUS45 KABQ 240210
RWRNM
NEW MEXICO REGIONAL WEATHER ROUNDUP
NATIONAL WEATHER SERVICE ALBUQUERQUE NM
800 PM MDT SAT JUL 23 2016

NOTE: "FAIR" MEANS FEW OR NO CLOUDS BELOW 12,000 FEET AGL WITH NO
       SIGNIFICANT WEATHER OR OBSTRUCTIONS TO VISION.

      THIS PRODUCT IS RELEASED AS TWO VERSIONS.  ONE VERSION NEAR
      THE TOP OF THE HOUR CONTAINING PRELIMINARY DATA FROM ALBUQUERQUE
      AND OTHER STATIONS.  A FINAL VERSION WITH ADDITIONAL DATA IS
      ISSUED ABOUT 10 MINUTES AFTER THE HOUR.

NMZ501-503-504-510>518-240300-
NORTHWEST PLATEAU/NORTHCENTRAL MOUNTAINS

CITY           SKY/WX    TMP DP  RH WIND       PRES   REMARKS
FARMINGTON     FAIR      89  39  17 NE15      30.06R
LOS ALAMOS     MOCLDY   N/A N/A N/A W17G24    30.20R
SANTA FE       RAIN      81  47  30 NE17      30.12R
TAOS           CLOUDY    82  37  20 E7        30.23R THUNDER
ANGEL FIRE     MOCLDY    71  44  37 SE6       30.35R

$$
NMZ402-403-502-505>509-240300-
WESTCENTRAL MOUNTAINS/SOUTHWEST MOUNTAINS

CITY           SKY/WX    TMP DP  RH WIND       PRES   REMARKS
GALLUP         FAIR      78  59  51 E3        30.17S
GRANTS         TSTM      71  52  51 S12G21    30.22R
SILVER CITY    FAIR      81  48  30 N16       30.09R

$$
NMZ407-409-411-412-240300-
SOUTHERN DESERTS

CITY           SKY/WX    TMP DP  RH WIND       PRES   REMARKS
LORDSBURG      FAIR      93  43  17 N14       29.97R
DEMING         FAIR      94  45  18 NW15G21   29.95R
LAS CRUCES     FAIR      96  37  13 E5        29.96R
ALAMOGORDO     FAIR      97  37  12 S6        29.93R
T OR C         FAIR      91  42  18 NW22G28   30.01R

$$
NMZ519>523-240300-
CENTRAL VALLEYS/CENTRAL HIGHLANDS

CITY           SKY/WX    TMP DP  RH WIND       PRES   REMARKS
ALBUQUERQUE    MOCLDY    95  42  16 SW10      30.02R
DOUBLE EAGLE   MOCLDY    88  43  20 W7        30.08R
MORIARTY ARPT  FAIR      85  40  20 SE16      30.12S
CLINES CORNERS FAIR      77  44  30 S15       30.20R
BELEN          FAIR      90  42  18 W23       30.02R
SOCORRO        FAIR      90  41  17 W21G30    29.99R

$$
NMZ524>526-539-540-240300-
SOUTHCENTRAL MOUNTAINS

CITY           SKY/WX    TMP DP  RH WIND       PRES   REMARKS
RUIDOSO          N/A     79  39  24 SE9       30.23R

$$
NMZ527>531-240300-
NORTHEAST HIGHLANDS/NORTHEAST PLAINS

CITY           SKY/WX    TMP DP  RH WIND       PRES   REMARKS
LAS VEGAS      LGT RAIN  76  42  29 VRB5      30.25R
RATON          FAIR      79  49  34 SW6       30.14S
CLAYTON        FAIR      79  57  46 SE6       30.03F

$$
NMZ532>537-240300-
EASTCENTRAL PLAINS

CITY           SKY/WX    TMP DP  RH WIND       PRES   REMARKS
TUCUMCARI      FAIR      92  38  15 S10       29.94R
CANNON AFB     FAIR      87  48  25 SE9       30.01R
CLOVIS AIRPORT FAIR      88  48  25 S9        30.01S

$$
NMZ028-029-538-240300-
SOUTHEAST PLAINS

CITY           SKY/WX    TMP DP  RH WIND       PRES   REMARKS
ROSWELL        FAIR      96  37  12 SE9       29.92R
ARTESIA        FAIR      95  39  14 SE9       29.92R
CARLSBAD       MOCLDY    96  42  15 SE9       29.88R
HOBBS          FAIR      91  48  22 SE14      29.97R


$$




USA.gov is the U.S. government's official web portal to all federal, state and local government web resources and services.